Flag for Portugal

Past Weather in Ponta Delgada, Azores, Portugal — Yesterday and Last 2 Weeks

Now
77 °F

Passing clouds.


Feels Like: 79 °F
Forecast: 75 / 68 °F
Wind: 15 mph from Northeast

Location: Ponta Delgada / Nordela Acores
Current Time: Aug 11, 2020 at 1:53:52 pm
Latest Report: Aug 11, 2020 at 1:00 pm
Visibility: N/A
Pressure30.24 "Hg
Humidity: 57%
Dew Point: 61 °F
Location of Ponta DelgadaLocation

Past Weather in Ponta Delgada — Graph

°F

Ponta Delgada Temperature Yesterday

Maximum temperature yesterday: 77 °F (at 2:30 pm)
Minimum temperature yesterday: 66 °F (at 2:00 am)
Average temperature yesterday: 71 °F

High & Low Weather Summary for the Past Weeks

 TemperatureHumidityPressure
High79 °F (Jul 30, 5:30 pm)100% (Jul 28, 11:30 pm)30.36 "Hg (Jul 28, 11:30 pm)
Low63 °F (Aug 7, 3:30 am)54% (Jul 31, 12:30 pm)29.89 "Hg (Aug 6, 3:30 am)
Average72 °F80%30.17 "Hg
* Reported Jul 27 12:00 pm — Aug 11 12:30 pm, Ponta Delgada. Weather by CustomWeather, © 2020

Note: Actual official high and low records may vary slightly from our data, if they occured in-between our weather recording intervals... More about our weather records

Ponta Delgada Weather History for the Previous 24 Hours

Scroll right to see more
 ConditionsComfort  
Time TempWeatherWind HumidityBarometerVisibility
12:30 pm
Tue, Aug 11
75 °FPassing clouds.15 mph61%30.24 "HgN/A
12:00 pm75 °FScattered clouds.14 mph61%30.24 "HgN/A
11:30 am75 °FPassing clouds.15 mph61%30.24 "HgN/A
11:00 am75 °FPassing clouds.14 mph57%30.24 "HgN/A
10:30 am75 °FPassing clouds.13 mph61%30.21 "HgN/A
10:00 am72 °FPassing clouds.13 mph69%30.21 "HgN/A
9:30 am72 °FPassing clouds.9 mph69%30.21 "HgN/A
9:00 am73 °FPassing clouds.9 mph65%30.21 "HgN/A
8:30 am72 °FPassing clouds.9 mph69%30.21 "HgN/A
8:00 am72 °FPassing clouds.7 mph69%30.18 "HgN/A
7:30 am70 °FPassing clouds.10 mph73%30.18 "HgN/A
7:00 am68 °FPassing clouds.12 mph78%30.18 "HgN/A
6:30 am68 °FPassing clouds.13 mph78%30.15 "HgN/A
6:00 am68 °FPassing clouds.10 mph78%30.15 "HgN/A
5:30 am70 °FPassing clouds.12 mph73%30.15 "HgN/A
5:00 am70 °FPassing clouds.12 mph78%30.15 "HgN/A
4:30 am70 °FPassing clouds.13 mph78%30.15 "HgN/A
4:00 am70 °FPassing clouds.13 mph78%30.15 "HgN/A
3:30 am70 °FPassing clouds.14 mph78%30.15 "HgN/A
3:00 am70 °FPassing clouds.12 mph78%30.15 "HgN/A
2:30 am70 °FPassing clouds.14 mph78%30.18 "HgN/A
2:00 am70 °FPassing clouds.14 mph78%30.18 "HgN/A
1:30 am70 °FPassing clouds.13 mph78%30.18 "HgN/A
1:00 am70 °FPassing clouds.10 mph83%30.18 "HgN/A
12:30 am70 °FPassing clouds.13 mph83%30.18 "HgN/A
11:30 pm
Mon, Aug 10
70 °FPassing clouds.12 mph83%30.18 "HgN/A
11:00 pm70 °FPassing clouds.12 mph83%30.18 "HgN/A
10:30 pm70 °FPassing clouds.9 mph83%30.18 "HgN/A
10:00 pm70 °FPassing clouds.13 mph78%30.15 "HgN/A
9:30 pm72 °FPassing clouds.12 mph78%30.15 "HgN/A
9:00 pm72 °FPassing clouds.12 mph78%30.15 "HgN/A
8:30 pm72 °FPassing clouds.15 mph78%30.15 "HgN/A
8:00 pm73 °FPassing clouds.14 mph74%30.15 "HgN/A
7:30 pm73 °FPassing clouds.16 mph74%30.12 "HgN/A
7:00 pm75 °FScattered clouds.15 mph69%30.12 "HgN/A
6:30 pm77 °FScattered clouds.15 mph65%30.12 "HgN/A
6:00 pm77 °FScattered clouds.16 mph65%30.12 "HgN/A
5:30 pm77 °FScattered clouds.12 mph61%30.12 "HgN/A
5:00 pm75 °FScattered clouds.13 mph69%30.12 "HgN/A
4:30 pm75 °FPartly sunny.13 mph69%30.12 "HgN/A
4:00 pm75 °FPartly sunny.13 mph69%30.12 "HgN/A
3:30 pm73 °FScattered clouds.8 mph83%30.12 "HgN/A
3:00 pm77 °FScattered clouds.10 mph61%30.12 "HgN/A
2:30 pm77 °FScattered clouds.12 mph69%30.15 "HgN/A
2:00 pm75 °FScattered clouds.9 mph78%30.15 "HgN/A
1:30 pm73 °FScattered clouds.13 mph78%30.15 "HgN/A
1:00 pm75 °FScattered clouds.15 mph78%30.15 "HgN/A
Weather by CustomWeather, © 2020

See weather overview